User: anonymous   Login
Location: Oshawa
(43.9000°N, 78.8670°W)
Time: 02:56:55
(UTC-04:00)
Language:

CARTOSAT-1 - Orbit

View from above orbital plane
View from above orbital plane
View from above satellite
View from above satellite

Ground track
Ground track

The orbit data is extracted from the following two-line orbital elements,

1 28649U 05017A   17229.87391575 +.00000120 +00000-0 +21006-4 0  9994
2 28649 097.8567 303.2988 0001763 153.8129 206.3153 14.83456008665121
Epoch (UTC): 17 August 2017 20:58:26
Eccentricity: 0.0001763
inclination: 97.8567°
perigee height: 617 km
apogee height: 619 km
right ascension of ascending node: 303.2988°
argument of perigee: 153.8129°
revolutions per day: 14.83456008
mean anomaly at epoch: 206.3153°
orbit number at epoch: 66512

The dashed part of the orbit path shows where the satellite is in the earth's shadow,  

DLR